Location: Ethel Rock
(53.4667°N, 4.5667°W)
Time: 04:20:57
(UTC+00:00)

Cosmos 1302 Rocket - Pass Details

Date: 24 October 2020
Orbit: 756 x 777 km, 74.0° (Epoch: 25 November)

Event Time Altitude Azimuth Distance (km) Brightness Sun altitude
Exits shadow 05:21:37 - 327° (NNW) 2,854 6.6 -15.6°
Reaches altitude 10° 05:23:02 10° 322° (NW) 2,339 6.2 -15.4°
Maximum altitude 05:27:55 39° 255° (WSW) 1,158 4.4 -14.7°
Drops below altitude 10° 05:32:47 10° 188° (S) 2,320 6.4 -14.0°
Sets 05:35:16 0° 181° (S) 3,241 7.3 -13.6°
